User: anonymous   Login
Location: Castelbiague
(43.0361°N, 0.9246°E)
Time: 04:36:25
(UTC+00:00)
Language:

Cosmos 1726 - Orbit

View from above orbital plane
View from above orbital plane
View from above satellite
View from above satellite

Ground track
Ground track

The orbit data is extracted from the following two-line orbital elements,

1 16495U 86006A   21261.41492728  .00001462  00000-0  55271-4 0  9991
2 16495  82.4717 309.6235 0013546 133.9621 226.2737 15.26063544952874
Epoch (UTC): 18 September 2021 09:57:29
Eccentricity: 0.0013546
inclination: 82.4717°
perigee height: 478 km
apogee height: 497 km
right ascension of ascending node: 309.6235°
argument of perigee: 133.9621°
revolutions per day: 15.26063544
mean anomaly at epoch: 226.2737°
orbit number at epoch: 95287

The dashed part of the orbit path shows where the satellite is in the earth's shadow,  

DLR